^^
Meteo Knjazevac Station Historical Data
Daily Summary for March 24, 2021 Units:  Metric    English   Both
Daily Weekly Monthly Yearly Custom
  High: Low: Average:
Temperature: 8.3 °C 7.2 °C 7.8 °C
Dew Point: 8.1 °C 6.3 °C 7.4 °C
Humidity: 99% 94% 97%
Wind Speed: 4.8km/h 0km/h 2.6km/h
Wind Gust: 9.7km/h - -
Wind- - SW
Pressure: 1030 hPa 1029 hPa -
Precipitation: 0 mm    
Historical Graphs
 
 
Tabular Data for March 24, 2021
Time Temperature Dew Point Pressure Wind Wind Speed Wind Gust Humidity Rainfall Rate (Hourly) solar Conditions
00:00 8.3 °C 8 °C 1029 hPa ENE 1.6 km/h 6.4 km/h 98% 0 mm 0 W/m2
00:10 8.2 °C 8.1 °C 1029 hPa WSW 1.6 km/h 6.4 km/h 99% 0 mm 0 W/m2
00:20 8.2 °C 8.1 °C 1029 hPa West 1.6 km/h 3.2 km/h 99% 0 mm 0 W/m2
00:30 8.2 °C 7.9 °C 1029 hPa Calm   3.2 km/h 98% 0 mm 0 W/m2
00:40 8.3 °C 8 °C 1029.3 hPa SSW 1.6 km/h 4.8 km/h 98% 0 mm 0 W/m2
00:50 8.3 °C 8 °C 1029.3 hPa WSW 1.6 km/h 3.2 km/h 98% 0 mm 0 W/m2
01:00 8.2 °C 8.1 °C 1029.3 hPa SW 3.2 km/h 4.8 km/h 99% 0 mm 0 W/m2
01:10 8.2 °C 7.9 °C 1029.3 hPa WSW 3.2 km/h 8 km/h 98% 0 mm 0 W/m2
01:20 8.1 °C 7.8 °C 1029.3 hPa SW 4.8 km/h 8 km/h 98% 0 mm 0 W/m2
01:30 8.1 °C 7.8 °C 1029.3 hPa WSW 3.2 km/h 8 km/h 98% 0 mm 0 W/m2
01:40 8.1 °C 7.8 °C 1029.7 hPa WSW 1.6 km/h 6.4 km/h 98% 0 mm 0 W/m2
01:50 8.1 °C 7.8 °C 1029.7 hPa West 1.6 km/h 3.2 km/h 98% 0 mm 0 W/m2
02:00 8 °C 7.7 °C 1029.7 hPa WSW 1.6 km/h 6.4 km/h 98% 0 mm 0 W/m2
02:10 8 °C 7.7 °C 1029.7 hPa WSW 3.2 km/h 6.4 km/h 98% 0 mm 0 W/m2
02:20 7.9 °C 7.6 °C 1029.7 hPa WSW 3.2 km/h 6.4 km/h 98% 0 mm 0 W/m2
02:30 7.9 °C 7.3 °C 1029.7 hPa SW 3.2 km/h 9.7 km/h 96% 0 mm 0 W/m2
02:40 7.8 °C 7.2 °C 1029.7 hPa SSW 3.2 km/h 4.8 km/h 96% 0 mm 0 W/m2
02:50 7.8 °C 7.5 °C 1029.7 hPa SW 4.8 km/h 8 km/h 98% 0 mm 0 W/m2
03:00 7.7 °C 7.4 °C 1029.7 hPa SW 3.2 km/h 8 km/h 98% 0 mm 0 W/m2
03:10 7.6 °C 7.3 °C 1029.7 hPa South 1.6 km/h 8 km/h 98% 0 mm 0 W/m2
03:20 7.6 °C 7.3 °C 1029.7 hPa SW 1.6 km/h 6.4 km/h 98% 0 mm 0 W/m2
03:30 7.5 °C 7.2 °C 1029.7 hPa SW 3.2 km/h 6.4 km/h 98% 0 mm 0 W/m2
03:40 7.5 °C 6.9 °C 1029.7 hPa SW 1.6 km/h 4.8 km/h 96% 0 mm 0 W/m2
03:50 7.5 °C 6.9 °C 1029.7 hPa SW 4.8 km/h 8 km/h 96% 0 mm 0 W/m2
04:00 7.5 °C 6.9 °C 1029.7 hPa SW 3.2 km/h 9.7 km/h 96% 0 mm 0 W/m2
04:10 7.5 °C 6.8 °C 1029.7 hPa WSW 4.8 km/h 9.7 km/h 95% 0 mm 0 W/m2
04:20 7.5 °C 6.6 °C 1030 hPa WSW 3.2 km/h 9.7 km/h 94% 0 mm 0 W/m2
04:30 7.4 °C 6.7 °C 1030 hPa NW 1.6 km/h 4.8 km/h 95% 0 mm 0 W/m2
04:40 7.3 °C 6.4 °C 1030 hPa WSW 3.2 km/h 8 km/h 94% 0 mm 0 W/m2
04:50 7.2 °C 6.3 °C 1030 hPa WSW 1.6 km/h 8 km/h 94% 0 mm 0 W/m2
Knjazevac, Serbia
Compliments of Weather Underground - 2 mb